Location: Drocourt
(49.0571°N, 1.7669°E)
Time: 07:54:32
(UTC+00:00)

Cosmos 1980 - Visible Passes

Search period start: 21 May 2024 00:00
Search period end: 31 May 2024 00:00
Orbit: 840 x 845 km, 71.0° (Epoch: 20 May)

Date Brightness Start Highest point End Pass type
(mag) Time Alt. Az. Time Alt. Az. Time Alt. Az.
21 May 6.6 02:52:14 10° N 02:56:32 21° NE 03:00:48 10° E visible
21 May 6.4 21:16:58 10° W 21:21:23 23° NW 21:25:50 10° N visible
22 May 6.6 02:37:25 10° N 02:41:38 21° NE 02:45:51 10° E visible
22 May 6.4 21:02:01 10° W 21:06:30 24° NW 21:11:01 10° N visible
23 May 6.6 02:22:36 10° N 02:26:45 20° NE 02:30:53 10° E visible
23 May 6.4 20:47:04 10° W 20:51:38 24° NW 20:56:12 10° N visible
24 May 6.6 02:07:49 10° N 02:11:52 20° NE 02:15:55 10° E visible
24 May 6.4 20:32:08 10° W 20:36:45 25° NW 20:41:23 10° NNE visible
25 May 6.6 01:52:59 10° N 01:56:59 19° NE 02:00:57 10° E visible
25 May 6.4 20:17:11 10° W 20:21:52 26° NW 20:26:34 10° NNE visible
26 May 6.6 01:38:10 10° N 01:42:06 19° NE 01:45:59 10° E visible
27 May 6.6 01:23:22 10° N 01:27:12 18° NE 01:31:01 10° E visible
27 May 4.1 03:06:40 10° NNW 03:12:21 70° ENE 03:17:59 10° SE visible
28 May 6.6 01:08:34 10° N 01:12:18 18° NE 01:16:02 10° ENE visible
28 May 4.2 02:51:50 10° NNW 02:57:30 67° ENE 03:03:07 10° SE visible
29 May 6.5 00:53:46 10° N 00:57:25 17° NE 01:01:03 10° ENE visible
29 May 4.2 02:36:59 10° NNW 02:42:39 65° ENE 02:48:16 10° SE visible
30 May 6.5 00:38:57 10° N 00:42:31 17° NE 00:46:04 10° ENE visible
30 May 4.3 02:22:10 10° NNW 02:27:48 62° ENE 02:33:24 10° SE visible
30 May 7.2 20:53:00 10° NNW 20:53:34 10° NNW 20:54:08 10° NNW visible
